Wind_Speed
5 4 4 6 3 5 11 7 14 14 2 5 0 7 8 19 3 5 26 19 22 25 23 21 19 15 14 13 10 9 7 5 4 2 2 3 4 5 6 7 8 8 8 7 7 8 8 8 9
7 2 6 6 6 11 9 13 16 10 5 8 2 5 8 5 8 23 23 24 21 26 23 22 19 16 14 12 10 7 5 4 3 3 3 4 5 6 7 8 8 8 8 9 9 9 9 10 10
7 6 7 4 7 14 11 12 12 0 10 7 5 4 6 5 16 26 26 26 20 23 22 21 19 16 14 11 9 6 5 5 4 4 4 5 6 7 8 8 9 9 10 10 11 11 11 11 11
3 5 7 7 14 15 17 12 6 6 3 8 13 8 8 1 22 20 28 25 21 22 21 21 19 16 13 10 7 6 6 5 5 5 5 6 6 7 8 9 10 10 11 12 12 12 12 11 11
8 8 6 9 15 16 17 28 14 6 7 7 10 9 10 14 14 27 28 26 25 23 22 21 18 15 13 9 7 7 6 6 5 6 6 6 8 8 9 10 11 12 12 13 13 12 13 13 13
9 6 6 13 11 15 18 27 18 11 14 11 4 10 8 14 24 27 27 25 25 21 25 22 18 14 12 9 7 7 6 6 6 6 7 8 9 9 10 11 12 12 13 13 14 14 15 15 14
9 7 10 12 10 17 20 29 6 19 16 12 7 7 11 17 31 29 27 26 23 20 24 22 19 15 11 9 8 7 7 7 6 7 8 9 9 10 10 11 12 13 13 14 14 15 15 15 15
11 4 12 12 12 14 20 30 16 15 11 25 13 7 8 27 34 33 26 25 22 22 21 22 18 14 11 10 9 8 8 7 7 7 8 9 9 10 10 11 12 13 14 14 15 16 15 15 16
8 4 9 12 14 15 24 14 22 20 7 15 38 15 13 35 39 31 30 26 24 22 21 19 18 14 12 11 10 8 8 8 8 8 7 7 9 10 10 11 12 12 13 13 13 15 17 18 16
5 6 11 12 11 13 23 14 11 9 15 15 20 24 30 41 42 37 35 31 25 26 23 18 15 14 13 11 10 9 8 9 8 8 7 8 7 7 8 10 10 11 12 13 13 17 18 17 16
5 8 12 16 23 13 18 18 20 4 16 5 9 25 39 43 40 39 35 30 30 27 24 23 19 15 12 11 9 8 8 8 7 7 6 5 6 7 9 10 11 12 12 12 14 15 16 17 17
7 14 21 18 23 6 9 20 18 10 17 11 12 20 37 43 42 42 36 34 30 27 25 22 19 16 13 10 7 7 7 7 7 7 6 5 5 5 7 8 9 10 10 11 13 14 15 16 15
10 12 11 18 18 12 13 16 12 24 18 14 9 28 40 45 42 40 37 33 30 27 25 21 19 16 13 12 8 7 7 7 6 5 5 4 3 4 5 6 8 9 10 11 12 13 14 14 14
3 9 5 10 17 21 12 14 16 15 18 18 11 20 35 36 40 40 36 34 34 26 24 23 20 16 15 14 11 8 8 6 6 5 3 2 2 3 4 6 6 8 9 10 12 14 13 13 12
8 3 5 4 17 13 19 14 16 23 26 24 6 12 22 36 36 36 36 34 33 27 24 21 20 18 15 14 11 10 7 6 5 4 3 1 2 3 4 4 6 7 8 9 11 12 12 11 11
4 1 4 10 21 23 14 14 10 22 26 27 10 13 21 24 29 33 35 31 33 30 27 23 21 18 15 13 11 9 7 5 4 3 2 1 1 3 3 3 5 6 7 9 11 12 13 12 13
4 3 9 7 8 14 13 9 17 26 31 27 16 18 19 28 29 28 32 34 33 31 26 25 22 19 16 14 12 10 8 6 4 3 2 2 1 2 2 2 4 5 7 10 12 13 13 13 14
2 5 4 6 5 11 13 15 20 19 26 22 22 21 21 26 32 30 30 30 31 27 26 25 23 20 17 15 12 10 9 7 5 4 4 2 2 1 1 2 3 5 7 9 11 13 14 13 14
10 4 8 4 10 4 14 15 15 21 8 13 15 22 27 27 30 30 30 31 35 33 29 28 25 21 18 14 12 10 9 8 6 5 4 4 3 2 1 1 3 5 7 11 13 13 13 13 14
9 7 9 6 6 7 8 15 16 13 12 17 21 16 24 25 22 31 34 37 37 37 32 29 27 25 21 17 11 7 9 8 6 4 5 6 4 3 1 1 2 5 7 9 11 13 13 13 14
8 6 11 10 5 8 5 9 12 15 18 11 14 21 24 29 30 19 27 34 35 33 30 29 24 18 17 16 10 6 12 6 6 6 7 7 5 4 2 1 2 5 7 10 11 12 13 13 12
8 7 12 7 6 4 9 4 10 14 16 8 13 13 18 21 25 24 26 24 28 27 27 25 19 8 5 10 9 13 9 8 8 7 7 7 5 4 3 1 2 5 7 9 10 11 11 11 11
6 10 9 9 7 5 5 1 6 12 14 9 9 19 16 21 25 29 24 21 21 22 21 21 18 12 13 18 16 13 10 9 9 10 10 7 6 4 3 0 3 5 7 8 9 9 10 10 11
6 9 9 7 2 2 9 6 6 9 18 10 14 23 21 25 26 27 25 19 19 16 21 23 22 24 28 24 18 16 18 15 12 9 8 7 7 6 2 1 4 5 7 8 9 9 10 10 11
5 3 3 2 0 4 6 3 10 6 2 6 11 25 26 27 30 28 25 22 12 17 19 23 22 23 21 19 18 18 16 14 11 11 9 9 7 4 2 2 5 6 8 9 10 10 10 10 12
5 5 2 5 2 5 3 4 6 5 6 8 2 33 31 28 27 28 27 25 28 24 20 16 20 19 18 14 14 15 16 14 13 11 11 9 5 2 2 4 6 7 8 9 10 10 11 12 13
2 3 3 3 5 2 4 4 2 3 2 1 7 21 30 28 24 21 23 23 21 21 21 25 21 19 18 15 16 17 16 12 11 11 9 6 3 1 2 5 7 8 9 11 12 13 13 14 15
6 5 2 2 3 4 0 5 4 6 6 5 4 2 12 22 22 19 16 16 19 18 19 18 18 17 17 18 19 16 14 13 11 8 6 3 1 1 4 6 8 10 11 13 15 16 16 17 18
3 3 5 2 2 2 4 4 2 5 4 6 6 11 15 17 19 17 16 16 20 20 19 19 20 20 21 20 17 15 14 11 9 7 4 2 2 4 6 8 11 13 14 16 16 17 17 17 18
2 3 1 2 5 3 2 5 4 6 6 5 10 16 18 18 20 21 23 21 23 23 22 21 21 21 20 17 15 14 11 9 7 5 3 3 4 7 9 11 13 14 14 14 15 16 17 19 20
Wind_Direction
240 181 249 292 239 225 228 233 246 271 78 79 165 78 104 37 57 145 145 160 175 160 155 153 154 151 147 145 141 134 132 133 133 107 57 47 38 42 40 32 28 25 21 17 12 6 1 356 350
167 199 219 257 231 235 225 235 219 240 100 88 147 55 83 88 91 134 146 165 177 158 155 156 156 152 149 148 138 135 133 131 120 104 84 70 60 47 39 38 36 33 31 27 24 18 12 6 2
186 174 227 202 239 230 235 220 224 219 114 157 104 34 66 93 125 139 155 163 164 151 157 155 153 153 152 145 139 133 127 121 110 95 84 76 62 51 47 44 42 41 39 33 28 23 20 15 14
275 214 270 247 236 221 251 265 109 109 101 192 139 102 87 116 138 147 165 156 151 153 158 153 153 151 151 146 141 134 128 120 112 102 89 75 66 61 56 55 52 46 40 34 30 27 25 24 24
231 243 235 236 249 258 224 250 157 197 154 221 184 130 103 135 140 157 156 149 152 170 157 152 150 159 150 149 143 136 127 118 110 98 86 77 70 66 63 57 51 47 43 38 34 32 33 34 32
246 254 235 233 251 240 262 254 177 188 169 198 171 109 134 171 148 161 154 157 167 169 157 151 155 160 155 152 146 135 125 115 107 98 89 81 76 72 64 57 52 48 44 40 37 35 36 36 36
265 260 255 269 245 242 242 254 186 186 180 167 149 121 142 167 161 160 151 154 175 169 156 155 162 162 161 154 143 133 121 110 104 100 94 86 81 71 62 57 52 49 45 43 40 39 38 38 37
274 272 273 263 262 268 243 251 216 238 207 175 184 172 167 169 165 153 159 159 170 163 160 163 165 166 164 157 144 133 121 111 107 104 100 97 84 73 65 56 50 48 46 45 43 41 39 43 39
268 252 247 256 256 264 281 245 240 211 266 169 178 163 193 164 158 157 160 166 167 164 169 167 169 170 168 158 144 134 123 114 112 108 104 102 80 70 58 52 49 47 47 45 47 47 42 37 36
238 238 254 261 264 266 294 306 207 226 245 232 95 129 149 159 163 161 165 169 169 168 173 169 170 173 164 156 148 138 131 125 125 116 104 82 75 57 58 53 48 47 48 48 48 46 40 37 36
249 250 280 267 280 332 325 329 326 323 254 195 148 133 149 162 169 169 170 172 172 171 167 166 174 175 164 160 148 141 129 128 126 121 112 98 73 56 42 40 42 42 44 44 44 41 36 32 31
255 251 256 284 303 321 314 310 316 293 269 342 199 191 164 168 173 174 171 174 172 170 169 176 176 173 166 154 147 147 146 142 139 131 118 93 74 59 47 41 41 39 43 43 42 36 34 29 30
241 269 294 275 288 300 287 296 291 298 290 275 324 177 173 169 175 176 176 175 172 171 167 178 177 175 165 145 176 166 155 156 144 140 127 118 78 54 46 44 40 40 41 43 38 32 31 27 28
298 270 274 333 304 290 274 278 279 282 281 285 237 199 170 174 175 174 179 176 176 172 184 186 178 176 171 169 177 172 174 161 154 147 138 101 69 45 39 42 42 40 41 37 33 28 28 25 23
279 278 231 264 284 269 277 268 255 271 275 280 258 178 191 169 179 182 182 182 181 180 190 186 180 181 180 173 176 181 176 172 168 160 160 120 43 38 40 40 37 39 40 34 28 29 22 23 19
222 292 242 207 216 250 243 270 279 252 266 264 242 214 178 188 185 186 180 174 185 186 197 189 187 185 183 180 184 181 181 184 182 186 177 207 16 13 31 35 37 36 31 27 20 20 19 15 13
226 236 218 273 240 221 210 252 255 249 235 250 232 208 197 189 191 188 188 184 182 186 196 188 188 189 186 183 186 184 186 193 200 208 227 252 338 341 4 33 35 34 27 22 18 16 11 8 10
280 231 265 241 299 203 209 239 267 273 217 239 238 194 198 196 192 195 191 186 180 183 196 189 185 186 187 188 189 189 194 203 206 218 247 247 274 281 354 23 40 30 22 20 16 13 10 8 7
316 325 299 226 266 204 223 240 247 276 235 270 274 207 198 197 207 197 186 181 179 183 190 184 180 184 186 186 190 199 205 206 217 237 253 259 258 235 191 43 33 24 17 14 9 10 10 6 9
286 302 291 290 277 194 249 234 256 249 241 223 248 246 193 197 208 193 190 185 186 183 189 179 182 187 183 175 172 199 217 209 227 230 242 249 249 235 200 116 27 26 15 13 7 6 11 16 9
264 278 284 301 250 256 269 261 230 248 260 234 242 253 202 198 202 175 188 184 182 185 182 183 191 192 191 184 171 183 225 224 225 219 237 233 237 220 180 153 37 11 5 10 7 7 6 9 14
284 302 318 291 315 239 188 261 207 219 242 215 228 188 192 194 199 195 200 202 194 192 192 194 185 191 223 237 207 211 234 236 239 236 224 216 219 204 183 176 23 1 2 6 5 3 1 359 1
224 253 287 282 277 321 240 238 258 200 223 217 194 189 189 184 170 177 176 176 178 172 177 189 202 242 213 213 210 206 203 221 234 228 226 198 193 190 197 253 359 354 355 357 355 354 353 350 350
294 292 250 237 253 283 235 188 263 192 203 207 176 186 173 173 164 156 155 157 171 177 180 191 194 207 203 202 196 196 213 214 218 216 212 204 188 191 206 325 334 345 342 341 346 344 345 341 338
211 9 317 320 357 254 288 239 235 356 241 191 180 174 179 175 170 166 165 160 186 198 181 193 189 197 206 195 190 196 213 210 207 202 199 198 198 195 244 321 327 334 333 337 338 338 334 331 328
216 152 238 335 309 259 6 248 237 187 52 350 288 172 176 181 183 184 183 181 192 202 191 204 198 192 196 193 184 196 204 200 203 198 194 197 197 216 293 324 329 333 333 332 331 329 327 324 321
359 208 206 244 256 1 211 243 173 108 31 313 33 166 174 177 167 182 191 195 199 202 199 197 189 189 183 187 191 190 197 196 186 184 185 185 191 246 313 332 332 327 325 323 322 323 319 317 316
205 326 325 291 293 299 342 274 239 184 189 180 138 109 122 141 150 163 173 180 184 189 188 181 179 175 167 174 177 182 181 172 171 177 183 185 193 317 331 324 318 317 319 319 318 315 313 311 311
171 249 216 223 247 246 310 272 323 236 172 162 170 182 148 142 151 161 158 159 159 164 163 163 165 161 163 168 169 167 166 170 169 174 169 192 292 311 315 313 312 314 317 317 316 317 319 320 320
322 269 251 190 302 277 179 274 348 64 47 122 157 152 142 154 145 147 151 157 155 155 156 161 160 163 166 161 160 162 165 164 165 169 193 259 295 306 307 310 315 320 324 326 327 326 326 326 325
Height
1506 1509 1512 1514 1519 1506 1502 1495 1486 1479 1475 1477 1479 1480 1485 1492 1494 1512 1510 1511 1510 1515 1519 1523 1526 1529 1531 1533 1534 1536 1537 1538 1539 1539 1539 1540 1539 1539 1539 1539 1538 1538 1537 1536 1535 1535 1534 1533 1532
1504 1508 1512 1511 1511 1507 1495 1482 1482 1476 1474 1479 1481 1484 1486 1499 1500 1506 1510 1509 1511 1515 1519 1523 1526 1529 1532 1533 1535 1536 1537 1538 1539 1539 1539 1540 1540 1540 1540 1539 1539 1538 1537 1537 1536 1535 1534 1533 1532
1504 1507 1510 1506 1500 1498 1493 1475 1474 1475 1476 1480 1484 1487 1491 1500 1502 1505 1509 1508 1513 1516 1519 1523 1527 1530 1532 1534 1536 1537 1538 1538 1539 1540 1540 1540 1540 1540 1540 1540 1539 1539 1538 1537 1536 1535 1534 1533 1532
1506 1508 1507 1498 1491 1487 1483 1471 1472 1476 1479 1481 1483 1492 1496 1499 1504 1506 1506 1512 1514 1517 1520 1524 1528 1530 1532 1535 1536 1537 1538 1539 1539 1540 1540 1540 1540 1540 1540 1540 1540 1539 1539 1538 1537 1536 1535 1533 1532
1505 1503 1503 1495 1489 1482 1475 1470 1474 1480 1481 1481 1482 1491 1497 1502 1504 1507 1509 1514 1515 1516 1521 1524 1528 1531 1533 1535 1537 1538 1539 1539 1540 1540 1541 1541 1541 1541 1541 1541 1541 1540 1539 1538 1538 1536 1535 1534 1532
1506 1500 1497 1497 1489 1482 1473 1469 1473 1476 1478 1481 1483 1489 1498 1501 1505 1507 1510 1515 1515 1517 1521 1525 1529 1532 1534 1536 1537 1538 1539 1540 1540 1541 1541 1542 1542 1542 1542 1542 1541 1541 1540 1539 1538 1537 1536 1534 1533
1503 1499 1495 1491 1486 1482 1472 1468 1470 1473 1473 1476 1482 1489 1494 1498 1504 1507 1512 1515 1515 1519 1521 1525 1528 1532 1534 1536 1538 1539 1540 1540 1541 1541 1542 1542 1543 1543 1543 1543 1542 1542 1541 1540 1539 1538 1536 1535 1534
1504 1500 1498 1490 1488 1481 1472 1466 1470 1470 1467 1469 1480 1485 1489 1492 1500 1508 1511 1515 1516 1519 1523 1525 1529 1532 1534 1536 1538 1539 1540 1541 1542 1542 1543 1543 1543 1544 1544 1544 1543 1542 1542 1541 1540 1538 1537 1536 1534
1503 1503 1497 1492 1488 1479 1470 1466 1465 1467 1466 1465 1466 1465 1477 1488 1498 1505 1509 1514 1517 1521 1524 1526 1529 1531 1534 1536 1538 1539 1540 1541 1542 1543 1543 1543 1544 1545 1545 1544 1544 1543 1542 1542 1541 1540 1538 1536 1535
1503 1500 1494 1488 1483 1480 1473 1468 1464 1464 1459 1471 1463 1465 1465 1484 1494 1500 1505 1510 1515 1519 1524 1527 1529 1531 1534 1536 1538 1539 1540 1542 1543 1543 1544 1544 1545 1545 1545 1545 1545 1544 1543 1543 1541 1540 1539 1538 1536
1500 1498 1492 1487 1484 1482 1478 1471 1467 1464 1453 1474 1459 1474 1467 1481 1492 1499 1504 1509 1513 1518 1523 1526 1529 1531 1534 1536 1538 1540 1541 1542 1543 1544 1545 1545 1545 1545 1545 1545 1545 1544 1544 1543 1542 1541 1540 1538 1537
1499 1495 1493 1490 1487 1483 1483 1477 1472 1468 1459 1464 1472 1466 1468 1480 1487 1496 1501 1507 1512 1517 1521 1525 1529 1532 1534 1537 1538 1540 1541 1542 1544 1545 1546 1546 1546 1546 1546 1546 1546 1545 1544 1543 1542 1542 1540 1539 1538
1497 1495 1493 1491 1488 1485 1484 1481 1479 1471 1464 1465 1471 1467 1476 1475 1481 1491 1498 1506 1513 1517 1519 1524 1528 1531 1534 1537 1539 1540 1542 1543 1545 1546 1546 1546 1547 1547 1546 1546 1546 1546 1545 1544 1543 1542 1541 1539 1538
1496 1494 1494 1493 1491 1485 1485 1483 1481 1471 1469 1468 1476 1480 1476 1480 1484 1487 1495 1503 1510 1514 1518 1523 1527 1531 1534 1536 1539 1541 1542 1544 1545 1546 1547 1547 1547 1547 1547 1546 1546 1546 1545 1545 1544 1542 1541 1540 1539
1495 1496 1494 1493 1493 1488 1485 1483 1478 1475 1469 1465 1471 1479 1455 1473 1483 1485 1492 1499 1508 1513 1518 1522 1526 1530 1533 1536 1539 1541 1542 1543 1544 1546 1546 1546 1547 1547 1547 1546 1546 1546 1545 1544 1544 1542 1541 1540 1538
1495 1497 1498 1486 1489 1486 1487 1484 1475 1477 1472 1469 1470 1473 1467 1478 1480 1488 1492 1496 1505 1512 1516 1521 1524 1529 1532 1535 1538 1540 1542 1543 1544 1545 1545 1546 1546 1547 1546 1545 1545 1545 1545 1544 1543 1541 1540 1539 1538
1494 1495 1494 1488 1483 1482 1483 1485 1477 1473 1471 1469 1471 1473 1474 1479 1483 1488 1490 1494 1501 1509 1515 1518 1522 1527 1530 1534 1537 1539 1541 1542 1544 1545 1545 1545 1546 1546 1546 1545 1544 1544 1544 1543 1542 1541 1540 1538 1537
1496 1494 1487 1488 1481 1476 1481 1481 1473 1467 1467 1466 1466 1471 1473 1478 1481 1486 1490 1492 1501 1508 1512 1517 1522 1525 1529 1532 1535 1538 1541 1541 1543 1543 1544 1546 1545 1546 1545 1545 1545 1544 1543 1543 1542 1541 1539 1537 1536
1486 1486 1486 1480 1483 1476 1481 1479 1471 1472 1465 1464 1461 1464 1469 1474 1479 1484 1486 1492 1498 1504 1509 1515 1520 1524 1527 1531 1534 1538 1539 1540 1541 1541 1544 1545 1544 1544 1544 1544 1544 1544 1543 1542 1541 1540 1538 1537 1536
1488 1489 1487 1477 1475 1480 1477 1476 1470 1468 1468 1464 1462 1460 1463 1468 1473 1474 1483 1490 1496 1498 1507 1511 1517 1520 1523 1528 1532 1536 1540 1539 1538 1540 1542 1544 1544 1544 1542 1542 1543 1543 1543 1541 1541 1540 1538 1537 1535
1486 1488 1485 1482 1478 1474 1475 1477 1470 1463 1463 1461 1460 1460 1463 1467 1467 1460 1483 1487 1491 1496 1502 1509 1515 1519 1523 1526 1528 1530 1541 1537 1538 1537 1539 1542 1543 1543 1541 1542 1541 1542 1542 1540 1540 1539 1537 1536 1535
1487 1488 1482 1481 1484 1493 1473 1494 1464 1462 1460 1458 1458 1460 1463 1468 1473 1473 1480 1485 1490 1493 1501 1508 1513 1518 1517 1526 1526 1531 1535 1535 1538 1537 1539 1539 1540 1541 1539 1540 1539 1541 1541 1540 1539 1538 1536 1536 1534
1492 1487 1483 1480 1481 1485 1473 1488 1463 1455 1458 1457 1455 1458 1463 1465 1467 1473 1477 1487 1490 1492 1497 1505 1508 1513 1512 1518 1524 1530 1532 1533 1538 1538 1540 1538 1537 1538 1539 1538 1538 1539 1539 1539 1538 1536 1535 1535 1534
1483 1483 1476 1476 1478 1493 1473 1478 1466 1453 1449 1450 1450 1455 1461 1466 1469 1474 1481 1483 1484 1488 1494 1502 1503 1509 1513 1519 1523 1525 1529 1530 1534 1536 1538 1537 1535 1536 1537 1536 1538 1537 1538 1537 1535 1535 1533 1533 1532
1483 1488 1496 1497 1496 1490 1465 1471 1461 1446 1443 1443 1445 1451 1458 1464 1468 1471 1474 1476 1485 1489 1492 1501 1502 1507 1512 1515 1519 1521 1527 1528 1530 1533 1534 1535 1535 1534 1535 1535 1536 1535 1536 1536 1534 1532 1531 1530 1529
1477 1480 1496 1496 1490 1482 1465 1474 1460 1441 1442 1444 1442 1445 1453 1459 1467 1470 1472 1475 1482 1489 1491 1499 1501 1503 1510 1514 1513 1519 1527 1527 1529 1530 1532 1533 1533 1533 1534 1533 1534 1534 1534 1533 1532 1530 1529 1527 1525
1474 1484 1472 1482 1473 1489 1471 1453 1448 1446 1447 1447 1444 1447 1450 1459 1464 1470 1473 1477 1482 1486 1488 1497 1501 1503 1502 1505 1513 1519 1523 1526 1527 1530 1531 1531 1530 1531 1532 1532 1533 1532 1531 1530 1530 1527 1526 1524 1522
1480 1479 1483 1485 1487 1476 1464 1462 1465 1455 1450 1449 1449 1450 1455 1459 1465 1470 1474 1479 1482 1486 1492 1497 1499 1501 1501 1509 1512 1518 1523 1522 1524 1528 1529 1530 1529 1529 1529 1530 1531 1530 1529 1527 1526 1524 1523 1520 1519
1480 1478 1476 1473 1473 1483 1477 1464 1449 1452 1446 1451 1452 1455 1457 1461 1465 1470 1475 1479 1482 1488 1492 1496 1500 1500 1504 1506 1511 1514 1519 1522 1522 1525 1526 1528 1528 1528 1528 1528 1528 1527 1525 1524 1522 1521 1518 1515 1514
1469 1469 1469 1479 1474 1470 1469 1474 1450 1449 1449 1450 1453 1456 1459 1463 1468 1472 1475 1480 1484 1489 1492 1496 1498 1500 1504 1503 1507 1512 1517 1519 1521 1522 1524 1526 1526 1526 1526 1525 1524 1523 1522 1520 1518 1516 1514 1512 1510